User: anonymous   Login
Location: ????????
(38.4362°N, 22.8767°E)
Time: 20:04:14
(UTC+00:00)
Language:

Meteor 2-12 Rocket - Orbit

View from above orbital plane
View from above orbital plane
View from above satellite
View from above satellite

Ground track
Ground track

The orbit data is extracted from the following two-line orbital elements,

1 15517U 85013B   24165.56857837  .00000034  00000-0  17440-4 0  9990
2 15517  82.5359 207.9809 0013976 216.0595 143.9625 13.84950625988460
Epoch (UTC): 13 June 2024 13:38:45
Eccentricity: 0.0013976
inclination: 82.5359°
perigee height: 936 km
apogee height: 956 km
right ascension of ascending node: 207.9809°
argument of perigee: 216.0595°
revolutions per day: 13.84950625
mean anomaly at epoch: 143.9625°
orbit number at epoch: 98846

The dashed part of the orbit path shows where the satellite is in the earth's shadow,  

DLR